Location: El Chorro
(10.0985°N, 67.3542°W)
Time: 18:38:00
(UTC+00:00)

IRS-P3 - Pass Details

Date: 15 November 2025
Orbit: 810 x 816 km, 99.0° (Epoch: 06 December)

Event Time Altitude Azimuth Distance (km) Brightness Sun altitude
Rises 22:28:38 0° 159° (SSE) 3,332 7.3 -6.6°
Reaches altitude 10° 22:31:00 10° 155° (SSE) 2,401 6.5 -7.2°
Maximum altitude 22:36:12 58° 76° (ENE) 942 4.2 -8.4°
Drops below altitude 10° 22:41:24 10° 358° (N) 2,399 6.4 -9.6°
Sets 22:43:46 0° 354° (N) 3,329 7.2 -10.2°
